* Astronomy

Members Login
Username 
 
Password 
    Remember Me  
Post Info TOPIC: Asteroid 2009 JA


L

Posts: 131433
Date:
Asteroid 2009 JA
Permalink  
 


Orbital elements:
2009 JA Earth MOID = 0.0172 AU
Epoch 2009 June 18.0 TT = JDT 2455000.5 MPC
M 5.31677 (2000.0) P Q
n 0.58716588 Peri. 45.95680 -0.08313379 +0.99258551
a 1.4124145 Node 219.53095 -0.94951177 -0.10590802
e 0.3202724 Incl. 8.00812 -0.30251639 +0.05964478
P 1.68 H 25.4 G 0.15 U 8

MPEC 2009-J09


__________________
Page 1 of 1  sorted by
 
Quick Reply

Please log in to post quick replies.



Create your own FREE Forum
Report Abuse
Powered by ActiveBoard